SCP
0 0 0 0 0 0 0 0 0 0 0 0 0 0 0 0 0 0 0 0 0 0 0 0 0 0 0 0 0 0 0 0 0 0 0 0 0 0 0 0 0 0 0
0 0 0 0 0 0 0 0 0 0 0 0 0 0 0 0 0 0 0 0 0 0 0 0 0 0 0 0 0 0 0 0 0 0 0 0 0 0 0 0 0 0 0
0 0 0 0 0 0 0 0 0 0 0 0 0 0 0 0 0 0 0 0 0 0 0 0 0 0 0 0 0 0 0 0 0 0 0 0 0 0 0 0 0 0 0
0 -0 0 0 0 0 0 0 0 0 0 0 0 0 0 0 0 0 0 0 0 0 0 0 0 0 0 0 0 0 0 0 0 0 0 0 0 0 0 0 0 0 0
0 -0 0 0 0 0 0 0 0 0 0 0 0 0 0 0 0 0 0 0 0 0 0 0 0 0 0 0 0 0 0 0 0 0 0 0 0 0 0 0 0 0 0
0 0 0 0 0 0 0 0 0 0 0 0 0 0 0 0 0 0 0 0 0 0 0 0 0 0 0 0 0 0 0 0 0 0 0 0 0 0 0 0 0 0 0
0 0 0 0 0 0 0 0 0 0 0 0 0 0 0 0 0 0 0 0 0 0 0 0 0 0 0 0 0 0 0 0 0 0 0 0 0 0 0 0 0 0 0
0 0 0 0 0 0 0 0 0 0 0 0 0 0 0 0 0 0 0 0 0 0 0 0 0 0 0 0 0 0 0 0 0 0 0 0 0 0 0 0 0 0 0
0 0 0 0 0 0 0 0 0 0 0 0 0 0 0 0 0 0 0 0 0 0 0 0 0 0 0 0 0 0 0 0 0 0 0 0 0 0 0 0 0 0 0
0 0 0 0 0 0 0 0 0 0 0 0 0 0 0 0 0 0 0 0 0 0 0 0 0 0 0 0 0 0 0 0 0 0 0 0 0 0 0 0 0 0 0
0 0 0 0 0 0 0 0 0 0 0 0 0 0 0 0 0 0 0 0 0 0 0 0 0 0 0 0 0 0 0 0 0 0 0 0 0 0 0 0 0 0 0
0 0 0 0 0 0 0 0 0 0 0 0 0 0 0 0 0 0 0 0 0 0 0 0 0 0 0 0 0 0 0 0 0 0 0 0 0 0 0 0 0 0 0
-0 -0 0 0 0 0 0 0 0 0 0 0 0 0 0 0 0 0 0 0 0 0 0 0 0 0 0 0 0 0 0 0 0 0 0 0 0 0 0 0 0 0 0
0 -0 0 0 0 0 0 0 0 0 0 0 0 0 0 0 0 0 0 0 0 0 0 0 0 0 0 0 0 0 0 0 0 0 0 0 0 0 0 0 0 0 0
0 0 0 0 0 0 0 0 0 0 0 0 0 0 0 0 0 0 0 0 0 0 0 0 0 0 0 0 0 0 0 0 0 0 0 0 0 0 0 0 0 0 0
0 0 0 0 0 0 0 0 0 0 0 0 0 0 0 0 0 0 0 0 0 0 0 0 0 0 0 0 0 0 0 0 0 0 0 0 0 0 0 0 0 0 0
0 0 0 0 0 0 0 0 0 0 0 0 0 0 0 0 0 0 0 0 0 0 0 0 0 0 0 0 0 0 0 0 0 0 0 0 0 0 0 0 0 0 0
0 0 0 0 0 0 0 0 0 0 0 0 0 0 0 0 0 0 0 0 0 0 0 0 0 0 0 0 0 0 0 0 0 0 0 0 0 0 0 0 0 0 0
0 0 0 0 0 0 0 0 0 0 0 0 0 0 0 0 0 0 0 0 0 0 0 0 0 0 0 0 0 0 0 0 0 0 0 0 0 0 0 0 0 0 0
0 0 0 0 0 0 0 0 0 0 0 0 0 0 0 0 0 0 0 0 0 0 0 0 0 0 0 0 0 0 0 0 0 0 0 0 0 0 0 0 0 0 0
0 0 0 0 0 0 0 0 0 0 0 0 0 0 0 0 0 0 0 0 0 0 0 0 0 0 0 0 0 0 0 0 0 0 0 0 0 0 0 0 0 0 0
0 0 0 0 0 0 0 0 0 0 0 0 0 0 0 0 0 0 0 0 0 0 0 0 0 0 0 0 0 0 0 0 0 0 0 0 0 0 0 0 0 0 0
0 0 0 0 0 0 0 0 0 0 0 0 0 0 0 0 0 0 0 0 0 0 0 0 0 0 0 0 0 0 0 0 0 0 0 0 0 0 0 0 0 0 0
0 0 0 0 0 0 0 0 0 0 0 0 0 0 0 0 0 0 0 0 0 0 0 0 0 0 0 0 0 0 0 0 0 0 0 0 0 0 0 0 0 0 0
-0 0 0 0 0 0 0 0 0 0 0 0 0 0 0 0 0 0 0 0 0 0 0 0 0 0 0 0 0 0 0 0 0 0 0 0 0 0 0 0 0 0 0
0 0 0 0 0 0 0 0 0 0 0 0 0 0 0 0 0 0 0 0 0 0 0 0 0 0 0 0 0 0 0 0 0 0 0 0 0 0 0 0 0 0 0
Wind_Speed
3 1 1 1 1 1 2 3 2 2 3 2 2 2 2 1 1 1 2 3 3 3 3 3 2 2 3 3 3 2 2 1 1 2 2 2 2 1 1 0 1 1 1
1 1 1 1 1 1 1 3 3 2 2 2 2 2 2 1 1 1 1 2 2 3 3 3 3 2 2 3 3 2 2 1 2 2 2 1 2 2 1 1 1 1 1
3 1 1 0 0 0 1 2 3 3 2 3 3 3 3 2 1 1 1 1 1 2 3 4 3 3 3 3 3 3 3 2 1 2 3 3 2 1 1 1 1 1 0
3 2 1 0 1 1 1 1 2 3 3 3 4 4 3 2 1 1 0 0 2 2 2 2 3 3 3 3 3 3 3 3 3 1 1 1 3 2 1 2 1 1 1
3 3 2 2 1 1 1 1 3 3 3 3 3 3 2 1 1 1 1 0 0 1 2 2 2 3 2 3 3 3 4 3 3 2 2 2 1 1 2 2 2 2 1
3 2 1 1 1 2 2 2 3 2 3 3 3 3 3 2 2 2 1 0 0 0 0 1 2 2 2 3 3 3 4 3 3 2 2 3 2 2 2 2 2 2 2
3 2 2 2 2 2 2 2 3 2 2 3 2 2 2 2 2 1 1 1 0 0 1 1 1 1 2 2 3 3 3 4 4 3 3 3 2 2 2 2 2 1 1
2 2 2 3 3 2 2 2 2 2 2 2 2 2 2 1 1 1 1 1 1 1 0 1 1 0 1 2 2 2 3 2 3 3 3 2 2 2 3 3 2 1 1
2 2 2 2 2 2 2 3 3 2 1 1 1 1 1 1 1 1 1 1 0 0 1 1 1 0 1 1 2 2 2 3 3 3 3 2 2 2 2 2 3 3 2
1 1 1 1 1 1 1 1 2 2 1 1 1 1 1 1 1 1 1 1 0 0 1 1 1 1 1 1 1 1 1 2 2 2 2 2 2 2 2 2 2 2 3
2 2 1 1 1 1 1 2 1 2 1 1 1 1 1 0 1 1 1 1 0 0 1 1 1 1 1 1 1 1 2 2 2 2 2 3 3 2 2 2 2 2 2
1 1 1 1 1 1 1 1 1 1 1 1 1 1 1 1 1 0 1 1 1 1 1 1 1 1 1 1 2 2 2 2 3 2 2 2 2 3 2 3 3 3 2
1 1 1 1 1 1 1 1 1 1 1 1 1 1 0 1 1 1 1 1 1 1 1 1 1 2 2 2 2 2 2 2 3 3 3 3 3 3 3 3 3 2 2
1 1 1 1 1 1 1 1 1 1 1 1 1 1 1 2 1 1 1 1 1 1 1 1 2 2 2 2 2 2 2 2 3 3 4 4 4 4 4 3 3 3 2
1 2 2 2 1 1 1 1 1 1 1 1 2 2 2 1 1 1 1 1 1 1 1 1 1 2 2 2 3 3 3 3 3 3 3 4 5 5 4 4 4 4 3
3 2 2 2 2 2 2 1 1 1 1 1 2 2 1 1 1 1 1 1 1 1 1 2 2 2 2 3 3 3 3 3 3 4 3 3 4 5 6 6 6 6 5
2 3 3 3 4 4 3 3 3 1 1 1 2 2 1 1 1 1 1 1 1 1 1 2 2 2 3 3 3 3 3 3 3 4 3 3 3 4 4 5 5 6 7
2 3 3 3 2 2 1 1 1 1 1 1 1 2 2 2 1 1 1 2 1 1 2 2 2 2 3 4 4 3 2 2 3 4 4 4 4 4 4 4 4 4 4
3 3 3 2 1 1 1 1 1 1 1 1 2 2 2 2 2 2 2 2 2 2 2 2 3 3 4 4 4 3 2 2 3 4 4 5 5 7 6 4 4 4 4
2 2 1 0 0 1 1 2 1 1 2 3 3 2 2 2 3 3 3 2 2 3 2 2 3 3 4 4 4 4 2 2 3 3 3 6 6 7 7 5 5 5 5
2 1 1 1 1 1 1 1 1 2 3 2 2 1 2 2 3 3 2 2 2 2 2 3 3 3 4 4 5 5 2 3 3 3 3 3 7 8 9 7 6 7 5
1 1 1 1 1 1 1 1 1 2 2 2 2 2 2 2 1 2 2 2 2 2 2 2 2 2 3 4 5 6 6 4 3 3 3 4 7 7 8 7 7 8 5
1 1 0 1 2 1 1 1 2 2 1 1 2 2 1 1 1 1 2 1 1 2 2 2 3 3 2 3 6 6 6 6 3 3 6 6 7 7 5 7 8 6 3
1 1 0 0 2 2 1 2 2 2 1 2 2 2 1 1 1 1 1 2 2 2 2 3 3 3 3 3 3 3 3 4 3 3 4 6 7 5 5 5 4 3 4
1 1 1 1 2 2 2 2 2 1 1 2 2 2 1 1 2 2 2 3 3 4 4 4 4 4 4 5 7 5 3 3 3 3 2 2 2 2 3 3 3 3 3
1 1 1 2 3 2 2 2 2 1 1 2 2 2 1 1 2 2 3 4 5 7 8 8 7 5 7 8 9 9 9 9 8 5 3 4 4 4 4 4 4 3 4
Wind_Direction
256 284 330 356 91 98 136 140 142 135 132 137 139 139 157 158 145 185 164 156 163 167 153 149 152 154 166 170 162 151 146 123 118 93 50 23 33 61 59 61 90 58 44
282 337 343 3 53 108 135 134 142 139 137 143 139 140 139 138 170 176 124 121 157 168 157 154 163 160 156 160 161 147 141 134 117 119 113 42 355 346 12 25 88 56 57
224 237 251 273 68 113 171 157 147 144 134 118 105 93 85 77 85 81 85 85 176 165 156 161 164 170 165 169 174 164 150 160 156 130 134 142 203 286 324 346 9 9 57
230 217 210 210 207 212 172 136 133 127 122 121 121 119 128 152 184 168 174 221 168 145 148 159 169 176 179 175 179 171 159 154 160 142 93 127 149 153 288 308 325 351 14
225 207 204 206 201 153 126 124 118 119 117 116 124 126 121 123 97 96 129 210 144 144 152 161 172 185 189 190 180 163 165 164 163 162 151 108 81 113 156 243 296 330 322
222 206 191 128 92 97 100 104 111 109 119 123 121 124 129 117 96 91 107 21 27 32 173 177 186 193 195 198 190 180 176 177 169 168 167 162 158 169 164 199 227 269 291
197 185 168 150 126 133 129 114 113 95 100 117 121 131 143 140 148 152 167 166 102 3 270 179 202 205 206 201 187 177 184 181 175 182 188 186 179 168 165 171 201 252 298
191 187 181 171 162 160 147 134 126 112 118 127 133 130 140 144 166 163 168 186 194 215 223 107 83 177 196 194 176 178 184 173 181 193 193 190 189 178 176 170 168 209 288
188 187 178 173 169 162 162 155 140 124 139 138 125 117 125 141 160 159 154 170 186 165 127 103 95 96 103 138 150 178 182 168 184 201 197 193 193 186 189 178 174 174 215
176 175 171 173 169 160 132 119 131 138 136 126 137 124 146 165 169 155 160 164 168 134 129 132 151 143 141 120 120 134 157 167 183 186 190 194 190 185 183 186 192 187 192
194 178 169 144 100 75 89 100 108 115 116 127 129 118 120 121 118 142 191 175 155 160 166 170 161 164 158 155 149 155 166 171 183 185 191 210 190 185 190 184 185 192 186
193 176 152 126 113 111 115 112 104 118 160 166 145 138 119 107 120 187 229 178 190 213 193 172 169 189 182 180 172 180 178 189 197 196 192 216 194 195 194 187 194 199 194
163 138 127 149 174 171 179 174 174 214 212 165 145 135 147 167 209 234 236 181 182 212 199 174 192 204 204 196 195 193 192 201 212 205 201 214 195 204 201 193 196 199 201
196 174 174 228 245 239 217 209 237 224 207 174 162 181 213 215 221 228 233 218 197 195 215 214 216 214 214 208 201 195 199 206 220 220 213 214 207 208 205 199 200 195 193
228 212 212 233 237 244 262 257 254 254 207 179 190 212 218 213 206 209 238 235 208 207 216 222 228 219 214 214 203 195 201 209 224 229 220 218 221 219 217 207 199 192 195
238 238 235 237 239 229 230 235 244 251 205 200 226 225 209 199 200 209 214 208 213 217 200 220 219 220 232 242 229 212 205 213 220 230 230 228 231 236 241 233 217 203 198
247 244 238 228 230 226 212 208 217 216 190 201 219 220 207 204 221 213 197 221 231 237 231 227 223 228 243 262 258 241 214 216 225 229 229 238 238 237 227 238 238 231 230
266 262 250 245 249 240 233 214 199 187 201 215 227 222 205 211 222 214 232 243 240 240 236 236 233 235 253 267 267 263 225 221 231 231 227 226 235 229 224 220 227 228 234
264 263 255 241 235 228 204 164 174 211 232 250 250 239 210 207 217 229 242 243 237 250 241 231 230 234 253 265 265 267 226 232 242 238 230 227 228 240 240 223 228 243 253
300 300 297 320 140 247 168 147 183 217 248 254 256 246 217 208 220 228 236 240 240 251 254 244 239 233 240 257 266 266 226 235 250 252 245 245 243 243 243 222 217 235 243
311 323 2 17 302 250 139 147 208 254 264 272 276 261 237 226 229 230 231 228 234 252 261 254 256 243 246 255 262 265 238 224 237 249 255 254 259 253 248 239 224 235 238
329 351 50 2 341 35 123 146 271 278 287 285 282 269 257 248 241 222 236 225 212 234 259 262 273 262 258 257 260 267 264 253 236 246 249 252 262 265 261 251 240 242 243
305 319 106 359 337 342 143 201 270 280 288 291 284 272 269 257 240 223 233 240 222 227 248 246 259 268 256 254 265 273 273 269 259 248 258 265 267 268 265 255 249 240 220
299 278 136 321 308 305 283 253 270 282 282 285 288 279 268 279 275 253 231 231 235 237 243 242 246 254 254 246 243 246 254 265 268 263 266 275 276 271 264 261 253 234 220
300 287 235 254 273 282 287 285 282 279 279 280 284 284 267 254 267 263 239 233 237 229 232 235 232 236 251 250 255 258 250 238 241 261 262 262 261 252 250 253 246 233 230
282 285 279 275 281 286 292 291 279 240 240 268 277 273 262 253 256 271 286 259 249 262 257 250 246 249 252 263 268 270 272 274 271 271 253 252 250 250 247 245 247 241 235